Time,TemperatureF,DewpointF,PressureIn,WindDirection,WindDirectionDegrees,WindSpeedMPH,WindSpeedGustMPH,Humidity,HourlyPrecipIn,Conditions,Clouds,dailyrainin,SoftwareType,DateUTC
2013-04-25 00:00:00,33.7,30.2,30.06,NW,318,10.0,11.0,87,0.00,,CLR,0.00,VWS V14.01,2013-04-25 05:00:00,
2013-04-25 00:03:00,33.7,30.2,30.06,NNW,336,11.0,11.0,87,0.00,,OVC090,0.00,VWS V14.01,2013-04-25 05:03:00,
2013-04-25 00:05:00,33.7,30.2,30.06,WNW,300,5.0,6.0,87,0.00,,CLR,0.00,VWS V14.01,2013-04-25 05:05:00,
2013-04-25 00:08:00,33.7,30.2,30.06,NW,322,6.0,6.0,87,0.00,,OVC090,0.00,VWS V14.01,2013-04-25 05:08:00,
2013-04-25 00:10:00,33.7,30.2,30.06,NW,311,5.0,5.0,87,0.00,,CLR,0.00,VWS V14.01,2013-04-25 05:10:00,
2013-04-25 00:13:00,33.7,30.2,30.05,NW,315,4.0,4.0,87,0.00,,OVC090,0.00,VWS V14.01,2013-04-25 05:13:00,
2013-04-25 00:15:00,33.6,30.1,30.05,WNW,286,9.0,9.0,87,0.00,,CLR,0.00,VWS V14.01,2013-04-25 05:15:00,
2013-04-25 00:18:00,33.6,30.1,30.05,WNW,300,6.0,9.0,87,0.00,,OVC090,0.00,VWS V14.01,2013-04-25 05:18:00,
2013-04-25 00:20:00,33.5,30.0,30.05,NW,316,6.0,6.0,87,0.00,,CLR,0.00,VWS V14.01,2013-04-25 05:20:00,
2013-04-25 00:23:00,33.5,30.0,30.05,NW,316,6.0,6.0,87,0.00,,OVC090,0.00,VWS V14.01,2013-04-25 05:23:00,
2013-04-25 00:25:00,33.3,29.9,30.05,NNW,336,7.0,7.0,87,0.00,,CLR,0.00,VWS V14.01,2013-04-25 05:25:00,
2013-04-25 00:28:00,33.3,29.9,30.05,NNW,336,7.0,7.0,87,0.00,,OVC090,0.00,VWS V14.01,2013-04-25 05:28:00,
2013-04-25 00:30:00,33.0,29.6,30.06,WNW,302,7.0,9.0,87,0.00,,CLR,0.00,VWS V14.01,2013-04-25 05:30:00,
2013-04-25 00:33:00,33.0,29.6,30.06,WNW,302,7.0,9.0,87,0.00,,OVC090,0.00,VWS V14.01,2013-04-25 05:33:00,
2013-04-25 00:35:00,32.8,29.4,30.06,NNW,329,4.0,4.0,87,0.00,,CLR,0.00,VWS V14.01,2013-04-25 05:35:00,
2013-04-25 00:38:00,32.8,29.4,30.06,NNW,329,4.0,4.0,87,0.00,,OVC060,0.00,VWS V14.01,2013-04-25 05:38:00,
2013-04-25 00:40:00,32.6,29.2,30.07,WNW,290,5.0,6.0,87,0.00,,CLR,0.00,VWS V14.01,2013-04-25 05:40:00,
2013-04-25 00:43:00,32.6,29.2,30.07,WNW,290,5.0,6.0,87,0.00,,OVC060,0.00,VWS V14.01,2013-04-25 05:43:00,
2013-04-25 00:45:00,32.5,29.1,30.07,WNW,292,7.0,11.0,87,0.00,,CLR,0.00,VWS V14.01,2013-04-25 05:45:00,
2013-04-25 00:48:00,32.5,29.1,30.07,WNW,292,7.0,11.0,87,0.00,,OVC060,0.00,VWS V14.01,2013-04-25 05:48:00,
2013-04-25 00:50:00,32.4,29.2,30.07,NW,310,7.0,7.0,88,0.00,,CLR,0.00,VWS V14.01,2013-04-25 05:50:00,
2013-04-25 00:53:00,32.4,29.2,30.07,NW,310,7.0,7.0,88,0.00,,OVC060,0.00,VWS V14.01,2013-04-25 05:53:00,
2013-04-25 00:55:00,32.4,29.2,30.07,NW,310,7.0,7.0,88,0.00,,CLR,0.00,VWS V14.01,2013-04-25 05:55:00,
2013-04-25 00:58:00,32.4,29.2,30.07,NW,310,7.0,7.0,88,0.00,,OVC060,0.00,VWS V14.01,2013-04-25 05:58:00,
2013-04-25 01:00:00,32.5,29.4,30.07,NW,314,11.0,11.0,88,0.00,,CLR,0.00,VWS V14.01,2013-04-25 06:00:00,
2013-04-25 01:03:00,32.5,29.4,30.07,NW,314,11.0,11.0,88,0.00,,OVC060,0.00,VWS V14.01,2013-04-25 06:03:00,
2013-04-25 01:05:00,32.5,29.1,30.08,NNW,327,4.0,6.0,87,0.00,,CLR,0.00,VWS V14.01,2013-04-25 06:05:00,
2013-04-25 01:08:00,32.5,29.1,30.08,NNW,327,4.0,6.0,87,0.00,,OVC060,0.00,VWS V14.01,2013-04-25 06:08:00,
2013-04-25 01:10:00,32.5,29.1,30.08,WNW,293,10.0,11.0,87,0.00,,CLR,0.00,VWS V14.01,2013-04-25 06:10:00,
2013-04-25 01:14:00,32.5,29.1,30.08,NW,309,10.0,11.0,87,0.00,,OVC060,0.00,VWS V14.01,2013-04-25 06:14:00,
2013-04-25 01:15:00,32.4,28.7,30.08,WNW,302,9.0,9.0,86,0.00,,CLR,0.00,VWS V14.01,2013-04-25 06:15:00,
2013-04-25 01:19:00,32.4,28.7,30.08,NW,317,9.0,11.0,86,0.00,,OVC060,0.00,VWS V14.01,2013-04-25 06:19:00,
2013-04-25 01:20:00,32.3,28.6,30.08,NW,309,7.0,8.0,86,0.00,,CLR,0.00,VWS V14.01,2013-04-25 06:20:00,
2013-04-25 01:24:00,32.3,28.6,30.08,NW,311,8.0,9.0,86,0.00,,OVC060,0.00,VWS V14.01,2013-04-25 06:24:00,
2013-04-25 01:25:00,32.3,28.6,30.09,WNW,301,10.0,12.0,86,0.00,,CLR,0.00,VWS V14.01,2013-04-25 06:25:00,
2013-04-25 01:29:00,32.3,28.6,30.09,NW,314,6.0,11.0,86,0.00,,OVC060,0.00,VWS V14.01,2013-04-25 06:29:00,
2013-04-25 01:30:00,32.1,28.4,30.09,NW,307,7.0,11.0,86,0.00,,CLR,0.00,VWS V14.01,2013-04-25 06:30:00,
2013-04-25 01:34:00,32.1,28.4,30.09,West,273,11.0,11.0,86,0.00,,OVC060,0.00,VWS V14.01,2013-04-25 06:34:00,
2013-04-25 01:35:00,32.0,28.3,30.09,WNW,300,6.0,12.0,86,0.00,,CLR,0.00,VWS V14.01,2013-04-25 06:35:00,
2013-04-25 01:39:00,32.0,28.3,30.09,NW,313,7.0,7.0,86,0.00,,OVC011,0.00,VWS V14.01,2013-04-25 06:39:00,
2013-04-25 01:40:00,31.9,28.2,30.09,WNW,302,6.0,6.0,86,0.00,,CLR,0.00,VWS V14.01,2013-04-25 06:40:00,
2013-04-25 01:44:00,31.9,28.2,30.09,NW,324,5.0,8.0,86,0.00,,OVC011,0.00,VWS V14.01,2013-04-25 06:44:00,
2013-04-25 01:45:00,31.8,28.1,30.09,WNW,300,5.0,6.0,86,0.00,,CLR,0.00,VWS V14.01,2013-04-25 06:45:00,
2013-04-25 01:49:00,31.8,28.1,30.09,NW,312,9.0,9.0,86,0.00,,OVC011,0.00,VWS V14.01,2013-04-25 06:49:00,
2013-04-25 01:50:00,31.7,28.0,30.09,West,281,5.0,5.0,86,0.00,,CLR,0.00,VWS V14.01,2013-04-25 06:50:00,
2013-04-25 01:54:00,31.7,28.0,30.09,WNW,298,5.0,5.0,86,0.00,,OVC011,0.00,VWS V14.01,2013-04-25 06:54:00,
2013-04-25 01:55:00,31.7,28.0,30.09,WNW,295,9.0,10.0,86,0.00,,CLR,0.00,VWS V14.01,2013-04-25 06:55:00,
2013-04-25 01:59:00,31.7,28.0,30.09,NW,323,10.0,14.0,86,0.00,,OVC011,0.00,VWS V14.01,2013-04-25 06:59:00,
2013-04-25 02:00:00,31.9,28.2,30.10,NW,313,4.0,9.0,86,0.00,,CLR,0.00,VWS V14.01,2013-04-25 07:00:00,
2013-04-25 02:04:00,31.9,28.5,30.10,WNW,300,4.0,12.0,87,0.00,,OVC011,0.00,VWS V14.01,2013-04-25 07:04:00,
2013-04-25 02:05:00,32.0,28.3,30.10,NW,321,11.0,12.0,86,0.00,,CLR,0.00,VWS V14.01,2013-04-25 07:05:00,
2013-04-25 02:10:00,32.1,28.4,30.10,NW,308,11.0,15.0,86,0.00,,OVC011,0.00,VWS V14.01,2013-04-25 07:10:00,
2013-04-25 02:15:00,32.2,28.5,30.10,WNW,302,7.0,12.0,86,0.00,,OVC011,0.00,VWS V14.01,2013-04-25 07:15:00,
2013-04-25 02:20:00,32.3,28.6,30.10,WNW,299,9.0,9.0,86,0.00,,OVC011,0.00,VWS V14.01,2013-04-25 07:20:00,
2013-04-25 02:25:00,32.2,28.5,30.10,West,275,5.0,5.0,86,0.00,,OVC011,0.00,VWS V14.01,2013-04-25 07:25:00,
2013-04-25 02:30:00,32.1,28.4,30.10,WSW,258,3.0,6.0,86,0.00,,OVC011,0.00,VWS V14.01,2013-04-25 07:30:00,
2013-04-25 02:35:00,31.9,27.9,30.10,NW,313,6.0,6.0,85,0.00,,BKN055,0.00,VWS V14.01,2013-04-25 07:35:00,
2013-04-25 02:40:00,31.7,27.7,30.10,NW,314,4.0,4.0,85,0.00,,BKN055,0.00,VWS V14.01,2013-04-25 07:40:00,
2013-04-25 02:45:00,31.6,27.9,30.10,WNW,303,4.0,5.0,86,0.00,,BKN055,0.00,VWS V14.01,2013-04-25 07:45:00,
2013-04-25 02:50:00,31.6,27.9,30.10,WNW,290,5.0,6.0,86,0.00,,BKN015,0.00,VWS V14.01,2013-04-25 07:50:00,
2013-04-25 02:55:00,31.6,27.9,30.10,WNW,302,7.0,11.0,86,0.00,,CLR,0.00,VWS V14.01,2013-04-25 07:55:00,
2013-04-25 02:56:00,31.6,27.9,30.10,WNW,300,2.0,2.0,86,0.00,,BKN015,0.00,VWS V14.01,2013-04-25 07:56:00,
2013-04-25 03:00:00,31.5,27.8,30.11,NW,310,4.0,6.0,86,0.00,,CLR,0.00,VWS V14.01,2013-04-25 08:00:00,
2013-04-25 03:01:00,31.6,27.9,30.10,NW,310,3.0,4.0,86,0.00,,BKN015,0.00,VWS V14.01,2013-04-25 08:01:00,
2013-04-25 03:05:00,31.4,27.7,30.11,WNW,303,11.0,11.0,86,0.00,,CLR,0.00,VWS V14.01,2013-04-25 08:05:00,
2013-04-25 03:06:00,31.5,27.8,30.10,NW,310,6.0,6.0,86,0.00,,BKN015,0.00,VWS V14.01,2013-04-25 08:06:00,
2013-04-25 03:10:00,31.4,27.7,30.11,NW,319,7.0,10.0,86,0.00,,CLR,0.00,VWS V14.01,2013-04-25 08:10:00,
2013-04-25 03:11:00,31.4,27.7,30.11,WNW,294,6.0,7.0,86,0.00,,BKN015,0.00,VWS V14.01,2013-04-25 08:11:00,
2013-04-25 03:15:00,31.4,27.7,30.11,WNW,302,4.0,4.0,86,0.00,,CLR,0.00,VWS V14.01,2013-04-25 08:15:00,
2013-04-25 03:16:00,31.4,27.7,30.11,WNW,300,7.0,9.0,86,0.00,,BKN015,0.00,VWS V14.01,2013-04-25 08:16:00,
2013-04-25 03:20:00,31.4,28.0,30.11,WNW,290,3.0,5.0,87,0.00,,CLR,0.00,VWS V14.01,2013-04-25 08:20:00,
2013-04-25 03:21:00,31.4,27.7,30.11,WNW,293,3.0,5.0,86,0.00,,BKN015,0.00,VWS V14.01,2013-04-25 08:21:00,
2013-04-25 03:25:00,31.3,27.6,30.12,WNW,299,1.0,2.0,86,0.00,,CLR,0.00,VWS V14.01,2013-04-25 08:25:00,
2013-04-25 03:26:00,31.3,27.9,30.12,NW,315,3.0,4.0,87,0.00,,BKN015,0.00,VWS V14.01,2013-04-25 08:26:00,
2013-04-25 03:30:00,31.2,27.5,30.11,West,280,6.0,7.0,86,0.00,,CLR,0.00,VWS V14.01,2013-04-25 08:30:00,
2013-04-25 03:31:00,31.3,27.6,30.12,WNW,292,5.0,7.0,86,0.00,,BKN015,0.00,VWS V14.01,2013-04-25 08:31:00,
2013-04-25 03:35:00,31.0,27.3,30.11,WNW,297,2.0,3.0,86,0.00,,CLR,0.00,VWS V14.01,2013-04-25 08:35:00,
2013-04-25 03:36:00,31.1,27.4,30.12,NW,313,4.0,4.0,86,0.00,,BKN017,0.00,VWS V14.01,2013-04-25 08:36:00,
2013-04-25 03:40:00,30.8,27.1,30.11,NW,325,2.0,3.0,86,0.00,,CLR,0.00,VWS V14.01,2013-04-25 08:40:00,
2013-04-25 03:41:00,30.9,27.2,30.11,NNW,334,1.0,3.0,86,0.00,,BKN017,0.00,VWS V14.01,2013-04-25 08:41:00,
2013-04-25 03:45:00,30.5,26.8,30.11,WNW,300,3.0,4.0,86,0.00,,CLR,0.00,VWS V14.01,2013-04-25 08:45:00,
2013-04-25 03:47:00,30.6,26.9,30.11,NW,310,2.0,2.0,86,0.00,,BKN017,0.00,VWS V14.01,2013-04-25 08:47:00,
2013-04-25 03:50:00,30.3,26.9,30.12,WNW,295,4.0,4.0,87,0.00,,CLR,0.00,VWS V14.01,2013-04-25 08:50:00,
2013-04-25 03:52:00,30.4,26.7,30.12,WNW,285,0.0,1.0,86,0.00,,BKN017,0.00,VWS V14.01,2013-04-25 08:52:00,
2013-04-25 03:55:00,30.1,26.7,30.12,WNW,300,5.0,6.0,87,0.00,,CLR,0.00,VWS V14.01,2013-04-25 08:55:00,
2013-04-25 03:57:00,30.2,26.8,30.12,NW,306,5.0,6.0,87,0.00,,BKN017,0.00,VWS V14.01,2013-04-25 08:57:00,
2013-04-25 04:00:00,30.0,26.6,30.12,WNW,299,4.0,5.0,87,0.00,,CLR,0.00,VWS V14.01,2013-04-25 09:00:00,
2013-04-25 04:02:00,30.0,26.6,30.12,WNW,294,5.0,5.0,87,0.00,,BKN017,0.00,VWS V14.01,2013-04-25 09:02:00,
2013-04-25 04:05:00,29.9,26.5,30.12,WNW,298,5.0,5.0,87,0.00,,CLR,0.00,VWS V14.01,2013-04-25 09:05:00,
2013-04-25 04:07:00,29.9,26.5,30.12,NW,317,3.0,4.0,87,0.00,,BKN017,0.00,VWS V14.01,2013-04-25 09:07:00,
2013-04-25 04:10:00,29.7,26.3,30.13,WNW,282,1.0,3.0,87,0.00,,CLR,0.00,VWS V14.01,2013-04-25 09:10:00,
2013-04-25 04:12:00,29.8,26.4,30.13,West,271,3.0,3.0,87,0.00,,BKN017,0.00,VWS V14.01,2013-04-25 09:12:00,
2013-04-25 04:15:00,29.6,26.2,30.13,NW,308,2.0,2.0,87,0.00,,CLR,0.00,VWS V14.01,2013-04-25 09:15:00,
2013-04-25 04:17:00,29.7,26.3,30.13,NNW,336,0.0,1.0,87,0.00,,BKN017,0.00,VWS V14.01,2013-04-25 09:17:00,
2013-04-25 04:20:00,29.6,26.2,30.13,WNW,299,3.0,4.0,87,0.00,,CLR,0.00,VWS V14.01,2013-04-25 09:20:00,
2013-04-25 04:22:00,29.6,26.2,30.13,WSW,241,0.0,1.0,87,0.00,,BKN017,0.00,VWS V14.01,2013-04-25 09:22:00,
2013-04-25 04:25:00,29.5,26.1,30.13,WNW,288,2.0,3.0,87,0.00,,CLR,0.00,VWS V14.01,2013-04-25 09:25:00,
2013-04-25 04:27:00,29.5,26.1,30.13,NW,315,1.0,2.0,87,0.00,,BKN017,0.00,VWS V14.01,2013-04-25 09:27:00,
2013-04-25 04:30:00,29.4,26.0,30.13,West,272,7.0,7.0,87,0.00,,CLR,0.00,VWS V14.01,2013-04-25 09:30:00,
2013-04-25 04:32:00,29.5,26.1,30.13,WNW,299,5.0,5.0,87,0.00,,BKN017,0.00,VWS V14.01,2013-04-25 09:32:00,
2013-04-25 04:35:00,29.4,26.0,30.13,NW,306,0.0,1.0,87,0.00,,CLR,0.00,VWS V14.01,2013-04-25 09:35:00,
2013-04-25 04:38:00,29.4,26.0,30.13,NW,309,2.0,3.0,87,0.00,,SCT015,0.00,VWS V14.01,2013-04-25 09:38:00,
2013-04-25 04:40:00,29.3,25.9,30.14,NW,322,5.0,5.0,87,0.00,,CLR,0.00,VWS V14.01,2013-04-25 09:40:00,
2013-04-25 04:43:00,29.3,25.9,30.14,WNW,285,3.0,4.0,87,0.00,,SCT015,0.00,VWS V14.01,2013-04-25 09:43:00,
2013-04-25 04:45:00,29.3,25.9,30.14,NW,325,3.0,4.0,87,0.00,,CLR,0.00,VWS V14.01,2013-04-25 09:45:00,
2013-04-25 04:48:00,29.3,25.9,30.14,West,261,0.0,1.0,87,0.00,,SCT015,0.00,VWS V14.01,2013-04-25 09:48:00,
2013-04-25 04:50:00,29.2,25.8,30.14,West,279,1.0,3.0,87,0.00,,CLR,0.00,VWS V14.01,2013-04-25 09:50:00,
2013-04-25 04:53:00,29.3,25.9,30.14,WNW,302,2.0,4.0,87,0.00,,SCT015,0.00,VWS V14.01,2013-04-25 09:53:00,
2013-04-25 04:55:00,29.2,25.8,30.14,NW,304,3.0,3.0,87,0.00,,CLR,0.00,VWS V14.01,2013-04-25 09:55:00,
2013-04-25 04:58:00,29.2,25.8,30.14,WNW,303,1.0,2.0,87,0.00,,SCT015,0.00,VWS V14.01,2013-04-25 09:58:00,
2013-04-25 05:00:00,29.1,25.7,30.14,West,271,0.0,1.0,87,0.00,,CLR,0.00,VWS V14.01,2013-04-25 10:00:00,
2013-04-25 05:03:00,29.1,25.7,30.14,SW,230,0.0,1.0,87,0.00,,SCT015,0.00,VWS V14.01,2013-04-25 10:03:00,
2013-04-25 05:05:00,29.0,25.3,30.14,West,279,0.0,0.0,86,0.00,,CLR,0.00,VWS V14.01,2013-04-25 10:05:00,
2013-04-25 05:08:00,29.0,25.4,30.14,WNW,286,0.0,2.0,86,0.00,,CLR,0.00,VWS V14.01,2013-04-25 10:08:00,
2013-04-25 05:10:00,28.8,25.4,30.15,West,276,0.0,2.0,87,0.00,,CLR,0.00,VWS V14.01,2013-04-25 10:10:00,
2013-04-25 05:13:00,28.8,25.4,30.15,West,281,0.0,4.0,87,0.00,,CLR,0.00,VWS V14.01,2013-04-25 10:13:00,
2013-04-25 05:15:00,28.8,25.4,30.15,WNW,286,3.0,4.0,87,0.00,,CLR,0.00,VWS V14.01,2013-04-25 10:15:00,
2013-04-25 05:18:00,28.8,25.4,30.15,WNW,286,3.0,4.0,87,0.00,,CLR,0.00,VWS V14.01,2013-04-25 10:18:00,
2013-04-25 05:20:00,28.8,25.4,30.15,West,266,2.0,3.0,87,0.00,,CLR,0.00,VWS V14.01,2013-04-25 10:20:00,
2013-04-25 05:23:00,28.8,25.4,30.15,West,266,2.0,3.0,87,0.00,,OVC011,0.00,VWS V14.01,2013-04-25 10:23:00,
2013-04-25 05:25:00,28.8,25.1,30.15,NW,319,3.0,4.0,86,0.00,,CLR,0.00,VWS V14.01,2013-04-25 10:25:00,
2013-04-25 05:28:00,28.8,25.1,30.15,NW,319,3.0,4.0,86,0.00,,SCT015,0.00,VWS V14.01,2013-04-25 10:28:00,
2013-04-25 05:30:00,28.7,25.0,30.15,WNW,286,1.0,2.0,86,0.00,,CLR,0.00,VWS V14.01,2013-04-25 10:30:00,
2013-04-25 05:33:00,28.7,25.0,30.15,WNW,286,1.0,2.0,86,0.00,,SCT015,0.00,VWS V14.01,2013-04-25 10:33:00,
2013-04-25 05:35:00,28.6,25.0,30.15,WNW,291,0.0,2.0,86,0.00,,CLR,0.00,VWS V14.01,2013-04-25 10:35:00,
2013-04-25 05:38:00,28.6,25.0,30.15,WNW,291,0.0,2.0,86,0.00,,CLR,0.00,VWS V14.01,2013-04-25 10:38:00,
2013-04-25 05:40:00,28.5,24.9,30.16,NW,313,2.0,2.0,86,0.00,,CLR,0.00,VWS V14.01,2013-04-25 10:40:00,
2013-04-25 05:43:00,28.5,24.9,30.16,NW,313,2.0,2.0,86,0.00,,CLR,0.00,VWS V14.01,2013-04-25 10:43:00,
2013-04-25 05:45:00,28.5,24.9,30.16,WNW,294,2.0,5.0,86,0.00,,CLR,0.00,VWS V14.01,2013-04-25 10:45:00,
2013-04-25 05:48:00,28.5,24.9,30.16,WNW,294,2.0,5.0,86,0.00,,CLR,0.00,VWS V14.01,2013-04-25 10:48:00,
2013-04-25 05:50:00,28.5,24.9,30.16,WSW,257,0.0,0.0,86,0.00,,CLR,0.00,VWS V14.01,2013-04-25 10:50:00,
2013-04-25 05:54:00,28.5,24.9,30.16,West,267,0.0,0.0,86,0.00,,CLR,0.00,VWS V14.01,2013-04-25 10:54:00,
2013-04-25 05:55:00,28.3,24.7,30.16,WNW,298,1.0,2.0,86,0.00,,CLR,0.00,VWS V14.01,2013-04-25 10:55:00,
2013-04-25 05:59:00,28.3,24.7,30.16,WNW,288,3.0,3.0,86,0.00,,CLR,0.00,VWS V14.01,2013-04-25 10:59:00,
2013-04-25 06:00:00,28.2,24.6,30.16,WNW,286,4.0,4.0,86,0.00,,CLR,0.00,VWS V14.01,2013-04-25 11:00:00,
2013-04-25 06:04:00,28.2,24.6,30.17,WNW,296,0.0,2.0,86,0.00,,CLR,0.00,VWS V14.01,2013-04-25 11:04:00,
2013-04-25 06:05:00,28.1,24.5,30.17,WNW,297,0.0,1.0,86,0.00,,CLR,0.00,VWS V14.01,2013-04-25 11:05:00,
2013-04-25 06:09:00,28.1,24.5,30.17,WNW,291,3.0,3.0,86,0.00,,CLR,0.00,VWS V14.01,2013-04-25 11:09:00,
2013-04-25 06:10:00,28.1,24.7,30.17,WNW,301,0.0,0.0,87,0.00,,CLR,0.00,VWS V14.01,2013-04-25 11:10:00,
2013-04-25 06:14:00,28.1,24.7,30.17,WNW,300,0.0,1.0,87,0.00,,CLR,0.00,VWS V14.01,2013-04-25 11:14:00,
2013-04-25 06:15:00,28.0,24.6,30.17,WNW,290,0.0,0.0,87,0.00,,CLR,0.00,VWS V14.01,2013-04-25 11:15:00,
2013-04-25 06:19:00,28.0,24.6,30.17,NW,309,3.0,6.0,87,0.00,,CLR,0.00,VWS V14.01,2013-04-25 11:19:00,
2013-04-25 06:20:00,28.0,24.6,30.17,West,267,2.0,2.0,87,0.00,,CLR,0.00,VWS V14.01,2013-04-25 11:20:00,
2013-04-25 06:24:00,28.0,24.6,30.18,West,268,1.0,1.0,87,0.00,,CLR,0.00,VWS V14.01,2013-04-25 11:24:00,
2013-04-25 06:25:00,27.9,24.5,30.18,West,275,0.0,2.0,87,0.00,,CLR,0.00,VWS V14.01,2013-04-25 11:25:00,
2013-04-25 06:29:00,27.9,24.5,30.18,West,274,0.0,0.0,87,0.00,,CLR,0.00,VWS V14.01,2013-04-25 11:29:00,
2013-04-25 06:30:00,27.9,24.5,30.18,WNW,287,2.0,3.0,87,0.00,,CLR,0.00,VWS V14.01,2013-04-25 11:30:00,
2013-04-25 06:34:00,27.9,24.5,30.18,WSW,245,3.0,3.0,87,0.00,,CLR,0.00,VWS V14.01,2013-04-25 11:34:00,
2013-04-25 06:35:00,27.9,24.5,30.18,West,269,1.0,3.0,87,0.00,,CLR,0.00,VWS V14.01,2013-04-25 11:35:00,
2013-04-25 06:39:00,27.9,24.5,30.18,WSW,249,0.0,0.0,87,0.00,,CLR,0.00,VWS V14.01,2013-04-25 11:39:00,
2013-04-25 06:40:00,27.9,24.5,30.18,West,269,3.0,3.0,87,0.00,,CLR,0.00,VWS V14.01,2013-04-25 11:40:00,
2013-04-25 06:45:00,27.9,24.5,30.19,WNW,294,1.0,4.0,87,0.00,,CLR,0.00,VWS V14.01,2013-04-25 11:45:00,
2013-04-25 06:50:00,28.0,24.6,30.18,West,268,0.0,1.0,87,0.00,,CLR,0.00,VWS V14.01,2013-04-25 11:50:00,
2013-04-25 06:55:00,28.1,24.7,30.19,WNW,293,0.0,2.0,87,0.00,,CLR,0.00,VWS V14.01,2013-04-25 11:55:00,
2013-04-25 07:00:00,28.2,24.8,30.19,West,279,0.0,2.0,87,0.00,,CLR,0.00,VWS V14.01,2013-04-25 12:00:00,
2013-04-25 07:05:00,28.2,24.8,30.20,West,263,4.0,5.0,87,0.00,,CLR,0.00,VWS V14.01,2013-04-25 12:05:00,
2013-04-25 07:10:00,28.4,25.0,30.20,NW,306,3.0,4.0,87,0.00,,CLR,0.00,VWS V14.01,2013-04-25 12:10:00,
2013-04-25 07:15:00,28.6,25.2,30.20,West,277,0.0,0.0,87,0.00,,CLR,0.00,VWS V14.01,2013-04-25 12:15:00,
2013-04-25 07:20:00,28.8,25.4,30.20,SW,233,5.0,5.0,87,0.00,,CLR,0.00,VWS V14.01,2013-04-25 12:20:00,
2013-04-25 07:25:00,29.0,25.6,30.21,WNW,302,2.0,2.0,87,0.00,,CLR,0.00,VWS V14.01,2013-04-25 12:25:00,
2013-04-25 07:30:00,29.3,25.9,30.21,West,271,6.0,6.0,87,0.00,,CLR,0.00,VWS V14.01,2013-04-25 12:30:00,
2013-04-25 07:35:00,29.7,26.3,30.21,West,265,5.0,7.0,87,0.00,,CLR,0.00,VWS V14.01,2013-04-25 12:35:00,
2013-04-25 07:40:00,29.9,26.2,30.22,West,274,1.0,2.0,86,0.00,,CLR,0.00,VWS V14.01,2013-04-25 12:40:00,
2013-04-25 07:41:00,29.9,26.2,30.22,WNW,296,5.0,6.0,86,0.00,,CLR,0.00,VWS V14.01,2013-04-25 12:41:00,
2013-04-25 07:45:00,29.9,26.0,30.22,WNW,289,4.0,4.0,85,0.00,,CLR,0.00,VWS V14.01,2013-04-25 12:45:00,
2013-04-25 07:46:00,29.9,26.0,30.22,NNW,337,1.0,3.0,85,0.00,,CLR,0.00,VWS V14.01,2013-04-25 12:46:00,
2013-04-25 07:50:00,29.9,26.0,30.23,WNW,302,2.0,7.0,85,0.00,,CLR,0.00,VWS V14.01,2013-04-25 12:50:00,
2013-04-25 07:51:00,29.9,26.0,30.22,NW,307,4.0,5.0,85,0.00,,CLR,0.00,VWS V14.01,2013-04-25 12:51:00,
2013-04-25 07:55:00,29.9,26.0,30.23,WNW,302,5.0,7.0,85,0.00,,CLR,0.00,VWS V14.01,2013-04-25 12:55:00,
2013-04-25 07:56:00,29.9,26.0,30.23,WNW,294,10.0,10.0,85,0.00,,CLR,0.00,VWS V14.01,2013-04-25 12:56:00,
2013-04-25 08:00:00,29.9,26.0,30.23,WNW,296,1.0,3.0,85,0.00,,CLR,0.00,VWS V14.01,2013-04-25 13:00:00,
2013-04-25 08:01:00,29.9,26.0,30.23,West,260,2.0,4.0,85,0.00,,CLR,0.00,VWS V14.01,2013-04-25 13:01:00,
2013-04-25 08:05:00,30.0,26.0,30.24,WNW,284,7.0,7.0,85,0.00,,CLR,0.00,VWS V14.01,2013-04-25 13:05:00,
2013-04-25 08:06:00,30.0,26.3,30.23,West,272,6.0,6.0,86,0.00,,CLR,0.00,VWS V14.01,2013-04-25 13:06:00,
2013-04-25 08:10:00,30.1,26.1,30.24,NW,319,4.0,5.0,85,0.00,,CLR,0.00,VWS V14.01,2013-04-25 13:10:00,
2013-04-25 08:11:00,30.0,26.0,30.24,NW,307,4.0,6.0,85,0.00,,CLR,0.00,VWS V14.01,2013-04-25 13:11:00,
2013-04-25 08:15:00,30.1,26.1,30.24,NW,312,3.0,8.0,85,0.00,,CLR,0.00,VWS V14.01,2013-04-25 13:15:00,
2013-04-25 08:16:00,30.1,26.1,30.24,NW,315,5.0,5.0,85,0.00,,CLR,0.00,VWS V14.01,2013-04-25 13:16:00,
2013-04-25 08:20:00,30.1,26.1,30.24,West,275,3.0,4.0,85,0.00,,CLR,0.00,VWS V14.01,2013-04-25 13:20:00,
2013-04-25 08:21:00,30.1,26.1,30.24,NW,315,8.0,8.0,85,0.00,,CLR,0.00,VWS V14.01,2013-04-25 13:21:00,
2013-04-25 08:25:00,30.1,25.9,30.24,West,279,5.0,5.0,84,0.00,,CLR,0.00,VWS V14.01,2013-04-25 13:25:00,
2013-04-25 08:26:00,30.1,26.1,30.24,NW,306,10.0,11.0,85,0.00,,CLR,0.00,VWS V14.01,2013-04-25 13:26:00,
2013-04-25 08:30:00,30.0,25.8,30.24,NW,305,6.0,8.0,84,0.00,,CLR,0.00,VWS V14.01,2013-04-25 13:30:00,
2013-04-25 08:31:00,30.0,25.8,30.24,WNW,303,7.0,11.0,84,0.00,,CLR,0.00,VWS V14.01,2013-04-25 13:31:00,
2013-04-25 08:35:00,30.0,25.8,30.24,WNW,291,4.0,5.0,84,0.00,,CLR,0.00,VWS V14.01,2013-04-25 13:35:00,
2013-04-25 08:36:00,30.0,25.8,30.24,West,269,3.0,4.0,84,0.00,,OVC014,0.00,VWS V14.01,2013-04-25 13:36:00,
2013-04-25 08:40:00,30.1,25.9,30.24,WNW,300,3.0,5.0,84,0.00,,CLR,0.00,VWS V14.01,2013-04-25 13:40:00,
2013-04-25 08:42:00,30.0,25.8,30.24,NW,315,3.0,6.0,84,0.00,,OVC014,0.00,VWS V14.01,2013-04-25 13:42:00,
2013-04-25 08:45:00,30.3,26.3,30.24,West,263,2.0,3.0,85,0.00,,CLR,0.00,VWS V14.01,2013-04-25 13:45:00,
2013-04-25 08:47:00,30.2,26.0,30.24,WNW,294,6.0,6.0,84,0.00,,OVC014,0.00,VWS V14.01,2013-04-25 13:47:00,
2013-04-25 08:50:00,30.5,26.5,30.24,NW,307,1.0,4.0,85,0.00,,CLR,0.00,VWS V14.01,2013-04-25 13:50:00,
2013-04-25 08:52:00,30.4,26.1,30.24,NW,309,3.0,3.0,84,0.00,,OVC014,0.00,VWS V14.01,2013-04-25 13:52:00,
2013-04-25 08:55:00,30.7,26.5,30.24,SW,229,5.0,10.0,84,0.00,,CLR,0.00,VWS V14.01,2013-04-25 13:55:00,
2013-04-25 08:57:00,30.7,26.5,30.25,WNW,293,9.0,10.0,84,0.00,,OVC014,0.00,VWS V14.01,2013-04-25 13:57:00,
2013-04-25 09:00:00,30.6,26.1,30.25,West,271,2.0,2.0,83,0.00,,CLR,0.00,VWS V14.01,2013-04-25 14:00:00,
2013-04-25 09:02:00,30.7,26.2,30.25,West,276,3.0,4.0,83,0.00,,OVC014,0.00,VWS V14.01,2013-04-25 14:02:00,
2013-04-25 09:05:00,30.7,26.2,30.25,NW,304,4.0,6.0,83,0.00,,CLR,0.00,VWS V14.01,2013-04-25 14:05:00,
2013-04-25 09:07:00,30.6,26.1,30.25,NW,311,3.0,5.0,83,0.00,,OVC014,0.00,VWS V14.01,2013-04-25 14:07:00,
2013-04-25 09:10:00,30.8,26.5,30.26,SW,223,0.0,1.0,84,0.00,,CLR,0.00,VWS V14.01,2013-04-25 14:10:00,
2013-04-25 09:12:00,30.7,26.5,30.25,WSW,254,1.0,1.0,84,0.00,,OVC014,0.00,VWS V14.01,2013-04-25 14:12:00,
2013-04-25 09:15:00,30.9,26.6,30.25,West,275,2.0,5.0,84,0.00,,CLR,0.00,VWS V14.01,2013-04-25 14:15:00,
2013-04-25 09:17:00,30.9,26.6,30.25,South,178,0.0,2.0,84,0.00,,OVC014,0.00,VWS V14.01,2013-04-25 14:17:00,
2013-04-25 09:20:00,30.8,26.3,30.26,West,269,2.0,4.0,83,0.00,,CLR,0.00,VWS V14.01,2013-04-25 14:20:00,
2013-04-25 09:23:00,30.8,26.3,30.26,NW,314,4.0,4.0,83,0.00,,OVC014,0.00,VWS V14.01,2013-04-25 14:23:00,
2013-04-25 09:25:00,30.9,26.4,30.26,West,281,5.0,5.0,83,0.00,,CLR,0.00,VWS V14.01,2013-04-25 14:25:00,
2013-04-25 09:28:00,30.9,26.4,30.26,WNW,292,6.0,9.0,83,0.00,,OVC014,0.00,VWS V14.01,2013-04-25 14:28:00,
2013-04-25 09:30:00,31.0,26.5,30.26,NW,305,4.0,9.0,83,0.00,,CLR,0.00,VWS V14.01,2013-04-25 14:30:00,
2013-04-25 09:33:00,31.0,26.5,30.26,NW,304,6.0,6.0,83,0.00,,OVC014,0.00,VWS V14.01,2013-04-25 14:33:00,
2013-04-25 09:35:00,31.2,26.6,30.26,WNW,302,1.0,2.0,83,0.00,,CLR,0.00,VWS V14.01,2013-04-25 14:35:00,
2013-04-25 09:38:00,31.2,26.6,30.26,WSW,251,4.0,8.0,83,0.00,,OVC012,0.00,VWS V14.01,2013-04-25 14:38:00,
2013-04-25 09:40:00,31.3,26.5,30.26,SSW,206,3.0,4.0,82,0.00,,CLR,0.00,VWS V14.01,2013-04-25 14:40:00,
2013-04-25 09:43:00,31.3,26.5,30.26,SW,215,4.0,6.0,82,0.00,,OVC012,0.00,VWS V14.01,2013-04-25 14:43:00,
2013-04-25 09:45:00,31.3,26.8,30.26,WNW,294,3.0,5.0,83,0.00,,CLR,0.00,VWS V14.01,2013-04-25 14:45:00,
2013-04-25 09:48:00,31.3,26.8,30.26,SSW,206,4.0,4.0,83,0.00,,OVC012,0.00,VWS V14.01,2013-04-25 14:48:00,
2013-04-25 09:50:00,31.5,26.9,30.26,West,263,5.0,5.0,83,0.00,,CLR,0.00,VWS V14.01,2013-04-25 14:50:00,
2013-04-25 09:53:00,31.5,26.9,30.26,WSW,252,6.0,7.0,83,0.00,,OVC012,0.00,VWS V14.01,2013-04-25 14:53:00,
2013-04-25 09:55:00,31.6,26.8,30.26,West,261,6.0,6.0,82,0.00,,CLR,0.00,VWS V14.01,2013-04-25 14:55:00,
2013-04-25 09:58:00,31.6,26.8,30.26,SW,222,4.0,4.0,82,0.00,,OVC012,0.00,VWS V14.01,2013-04-25 14:58:00,
2013-04-25 10:00:00,31.6,27.0,30.26,WSW,249,3.0,6.0,83,0.00,,CLR,0.00,VWS V14.01,2013-04-25 15:00:00,
2013-04-25 10:03:00,31.6,27.0,30.26,West,259,6.0,8.0,83,0.00,,OVC012,0.00,VWS V14.01,2013-04-25 15:03:00,
2013-04-25 10:05:00,32.0,27.4,30.26,NW,308,7.0,7.0,83,0.00,,CLR,0.00,VWS V14.01,2013-04-25 15:05:00,
2013-04-25 10:08:00,32.0,27.4,30.26,NW,304,7.0,7.0,83,0.00,,OVC012,0.00,VWS V14.01,2013-04-25 15:08:00,
2013-04-25 10:10:00,32.7,28.1,30.26,SW,229,5.0,7.0,83,0.00,,CLR,0.00,VWS V14.01,2013-04-25 15:10:00,
2013-04-25 10:13:00,32.7,28.1,30.26,SW,229,5.0,7.0,83,0.00,,OVC012,0.00,VWS V14.01,2013-04-25 15:13:00,
2013-04-25 10:15:00,33.2,28.0,30.26,NW,306,4.0,4.0,81,0.00,,CLR,0.00,VWS V14.01,2013-04-25 15:15:00,
2013-04-25 10:18:00,33.2,28.0,30.26,NW,316,3.0,4.0,81,0.00,,OVC012,0.00,VWS V14.01,2013-04-25 15:18:00,
2013-04-25 10:20:00,33.7,28.5,30.26,SW,225,5.0,6.0,81,0.00,,CLR,0.00,VWS V14.01,2013-04-25 15:20:00,
2013-04-25 10:23:00,33.7,28.5,30.26,SW,225,5.0,6.0,81,0.00,,OVC012,0.00,VWS V14.01,2013-04-25 15:23:00,
2013-04-25 10:25:00,34.0,28.5,30.26,SSW,211,3.0,4.0,80,0.00,,CLR,0.00,VWS V14.01,2013-04-25 15:25:00,
2013-04-25 10:28:00,34.0,28.5,30.26,SSW,211,3.0,4.0,80,0.00,,OVC012,0.00,VWS V14.01,2013-04-25 15:28:00,
2013-04-25 10:30:00,34.4,28.6,30.26,West,267,3.0,4.0,79,0.00,,CLR,0.00,VWS V14.01,2013-04-25 15:30:00,
2013-04-25 10:33:00,34.4,28.6,30.26,West,267,3.0,4.0,79,0.00,,OVC012,0.00,VWS V14.01,2013-04-25 15:33:00,
2013-04-25 10:35:00,34.4,28.3,30.27,West,275,5.0,6.0,78,0.00,,CLR,0.00,VWS V14.01,2013-04-25 15:35:00,
2013-04-25 10:38:00,34.4,28.3,30.27,West,275,5.0,6.0,78,0.00,,BKN014,0.00,VWS V14.01,2013-04-25 15:38:00,
2013-04-25 10:40:00,34.4,28.3,30.27,West,279,6.0,6.0,78,0.00,,CLR,0.00,VWS V14.01,2013-04-25 15:40:00,
2013-04-25 10:43:00,34.4,28.3,30.27,West,279,6.0,6.0,78,0.00,,BKN014,0.00,VWS V14.01,2013-04-25 15:43:00,
2013-04-25 10:45:00,34.7,28.9,30.26,WSW,244,4.0,6.0,79,0.00,,CLR,0.00,VWS V14.01,2013-04-25 15:45:00,
2013-04-25 10:48:00,34.7,28.9,30.26,WSW,244,4.0,6.0,79,0.00,,BKN014,0.00,VWS V14.01,2013-04-25 15:48:00,
2013-04-25 10:50:00,35.2,29.4,30.26,SW,226,6.0,6.0,79,0.00,,CLR,0.00,VWS V14.01,2013-04-25 15:50:00,
2013-04-25 10:53:00,35.2,29.4,30.26,SW,226,6.0,6.0,79,0.00,,SCT014,0.00,VWS V14.01,2013-04-25 15:53:00,
2013-04-25 10:55:00,35.8,29.3,30.26,NW,309,3.0,5.0,77,0.00,,CLR,0.00,VWS V14.01,2013-04-25 15:55:00,
2013-04-25 10:58:00,35.8,29.3,30.26,NW,309,3.0,5.0,77,0.00,,SCT014,0.00,VWS V14.01,2013-04-25 15:58:00,
2013-04-25 11:00:00,36.3,29.5,30.26,WSW,252,4.0,4.0,76,0.00,,CLR,0.00,VWS V14.01,2013-04-25 16:00:00,
2013-04-25 11:03:00,36.3,29.5,30.26,WSW,252,4.0,4.0,76,0.00,,SCT014,0.00,VWS V14.01,2013-04-25 16:03:00,
2013-04-25 11:05:00,36.5,30.0,30.26,WNW,287,6.0,6.0,77,0.00,,CLR,0.00,VWS V14.01,2013-04-25 16:05:00,
2013-04-25 11:08:00,36.5,30.0,30.26,WNW,287,6.0,6.0,77,0.00,,SCT014,0.00,VWS V14.01,2013-04-25 16:08:00,
2013-04-25 11:10:00,37.1,30.2,30.26,WNW,294,7.0,7.0,76,0.00,,CLR,0.00,VWS V14.01,2013-04-25 16:10:00,
2013-04-25 11:13:00,37.1,30.2,30.26,WNW,294,7.0,7.0,76,0.00,,SCT014,0.00,VWS V14.01,2013-04-25 16:13:00,
2013-04-25 11:15:00,37.3,29.1,30.26,West,276,4.0,8.0,72,0.00,,CLR,0.00,VWS V14.01,2013-04-25 16:15:00,
2013-04-25 11:18:00,37.3,29.1,30.26,West,276,4.0,8.0,72,0.00,,SCT014,0.00,VWS V14.01,2013-04-25 16:18:00,
2013-04-25 11:20:00,37.1,28.6,30.26,WSW,251,4.0,5.0,71,0.00,,CLR,0.00,VWS V14.01,2013-04-25 16:20:00,
2013-04-25 11:23:00,37.1,28.6,30.26,WSW,251,4.0,5.0,71,0.00,,SCT014,0.00,VWS V14.01,2013-04-25 16:23:00,
2013-04-25 11:25:00,37.5,30.0,30.26,NW,309,3.0,3.0,74,0.00,,CLR,0.00,VWS V14.01,2013-04-25 16:25:00,
2013-04-25 11:29:00,37.5,30.0,30.25,WNW,289,4.0,6.0,74,0.00,,SCT014,0.00,VWS V14.01,2013-04-25 16:29:00,
2013-04-25 11:30:00,37.5,29.6,30.25,SW,233,0.0,2.0,73,0.00,,CLR,0.00,VWS V14.01,2013-04-25 16:30:00,
2013-04-25 11:34:00,37.5,29.6,30.25,SW,233,1.0,1.0,73,0.00,,SCT014,0.00,VWS V14.01,2013-04-25 16:34:00,
2013-04-25 11:35:00,37.8,29.9,30.25,WNW,287,10.0,10.0,73,0.00,,CLR,0.00,VWS V14.01,2013-04-25 16:35:00,
2013-04-25 11:39:00,37.9,30.0,30.25,SW,214,3.0,5.0,73,0.00,,FEW017,0.00,VWS V14.01,2013-04-25 16:39:00,
2013-04-25 11:40:00,38.4,30.2,30.25,West,262,9.0,10.0,72,0.00,,CLR,0.00,VWS V14.01,2013-04-25 16:40:00,
2013-04-25 11:44:00,38.4,29.8,30.25,WSW,244,7.0,7.0,71,0.00,,FEW017,0.00,VWS V14.01,2013-04-25 16:44:00,
2013-04-25 11:45:00,38.4,30.2,30.25,WSW,242,5.0,5.0,72,0.00,,CLR,0.00,VWS V14.01,2013-04-25 16:45:00,
2013-04-25 11:49:00,38.4,29.8,30.25,West,261,3.0,6.0,71,0.00,,FEW017,0.00,VWS V14.01,2013-04-25 16:49:00,
2013-04-25 11:50:00,38.3,29.0,30.25,West,265,3.0,5.0,69,0.00,,CLR,0.00,VWS V14.01,2013-04-25 16:50:00,
2013-04-25 11:54:00,38.3,28.7,30.25,WSW,250,3.0,7.0,68,0.00,,FEW017,0.00,VWS V14.01,2013-04-25 16:54:00,
2013-04-25 11:55:00,38.3,30.1,30.25,SW,214,6.0,8.0,72,0.00,,CLR,0.00,VWS V14.01,2013-04-25 16:55:00,
2013-04-25 11:59:00,38.3,29.4,30.25,WSW,240,4.0,4.0,70,0.00,,FEW017,0.00,VWS V14.01,2013-04-25 16:59:00,
2013-04-25 12:00:00,38.7,30.8,30.25,SSW,196,9.0,11.0,73,0.00,,CLR,0.00,VWS V14.01,2013-04-25 17:00:00,
2013-04-25 12:04:00,39.0,31.1,30.25,WSW,257,1.0,5.0,73,0.00,,FEW017,0.00,VWS V14.01,2013-04-25 17:04:00,
2013-04-25 12:05:00,39.2,30.6,30.25,SSW,200,5.0,9.0,71,0.00,,CLR,0.00,VWS V14.01,2013-04-25 17:05:00,
2013-04-25 12:09:00,39.2,31.0,30.25,SSW,200,4.0,6.0,72,0.00,,FEW017,0.00,VWS V14.01,2013-04-25 17:09:00,
2013-04-25 12:10:00,39.2,30.2,30.25,WSW,241,3.0,4.0,70,0.00,,CLR,0.00,VWS V14.01,2013-04-25 17:10:00,
2013-04-25 12:14:00,39.4,31.1,30.25,SSW,213,3.0,3.0,72,0.00,,FEW017,0.00,VWS V14.01,2013-04-25 17:14:00,
2013-04-25 12:15:00,40.0,31.0,30.25,NNW,335,2.0,4.0,70,0.00,,CLR,0.00,VWS V14.01,2013-04-25 17:15:00,
2013-04-25 12:20:00,40.1,30.8,30.25,West,276,6.0,10.0,69,0.00,,FEW017,0.00,VWS V14.01,2013-04-25 17:20:00,
2013-04-25 12:25:00,40.3,30.2,30.25,WSW,241,2.0,4.0,67,0.00,,FEW017,0.00,VWS V14.01,2013-04-25 17:25:00,
2013-04-25 12:30:00,39.8,29.8,30.24,SW,227,6.0,6.0,67,0.00,,FEW017,0.00,VWS V14.01,2013-04-25 17:30:00,
2013-04-25 12:35:00,39.7,30.0,30.24,WNW,296,2.0,2.0,68,0.00,,FEW017,0.00,VWS V14.01,2013-04-25 17:35:00,
2013-04-25 12:40:00,39.7,30.0,30.24,WSW,252,8.0,9.0,68,0.00,,FEW026,0.00,VWS V14.01,2013-04-25 17:40:00,
2013-04-25 12:45:00,40.3,31.7,30.24,SSW,207,8.0,9.0,71,0.00,,FEW026,0.00,VWS V14.01,2013-04-25 17:45:00,
2013-04-25 12:50:00,40.8,29.6,30.24,WSW,244,4.0,7.0,64,0.00,,FEW026,0.00,VWS V14.01,2013-04-25 17:50:00,
2013-04-25 12:55:00,40.4,28.8,30.24,SSW,209,4.0,4.0,63,0.00,,FEW026,0.00,VWS V14.01,2013-04-25 17:55:00,
2013-04-25 13:00:00,40.6,30.1,30.23,SSW,194,3.0,6.0,66,0.00,,FEW026,0.00,VWS V14.01,2013-04-25 18:00:00,
2013-04-25 13:05:00,40.3,28.7,30.23,West,277,0.0,1.0,63,0.00,,FEW026,0.00,VWS V14.01,2013-04-25 18:05:00,
2013-04-25 13:10:00,40.5,30.0,30.23,South,169,6.0,8.0,66,0.00,,CLR,0.00,VWS V14.01,2013-04-25 18:10:00,
2013-04-25 13:11:00,40.0,30.7,30.23,WNW,282,4.0,4.0,69,0.00,,FEW026,0.00,VWS V14.01,2013-04-25 18:11:00,
2013-04-25 13:15:00,40.8,30.3,30.23,South,186,2.0,4.0,66,0.00,,CLR,0.00,VWS V14.01,2013-04-25 18:15:00,
2013-04-25 13:16:00,40.7,30.6,30.23,SSW,207,5.0,6.0,67,0.00,,FEW026,0.00,VWS V14.01,2013-04-25 18:16:00,
2013-04-25 13:20:00,41.1,31.0,30.22,West,269,4.0,4.0,67,0.00,,CLR,0.00,VWS V14.01,2013-04-25 18:20:00,
2013-04-25 13:21:00,40.8,29.6,30.22,NW,305,4.0,4.0,64,0.00,,FEW026,0.00,VWS V14.01,2013-04-25 18:21:00,
2013-04-25 13:25:00,41.7,31.2,30.22,SSE,157,6.0,8.0,66,0.00,,CLR,0.00,VWS V14.01,2013-04-25 18:25:00,
2013-04-25 13:26:00,41.4,30.5,30.22,South,186,5.0,6.0,65,0.00,,FEW026,0.00,VWS V14.01,2013-04-25 18:26:00,
2013-04-25 13:30:00,42.2,30.5,30.22,South,188,5.0,5.0,63,0.00,,CLR,0.00,VWS V14.01,2013-04-25 18:30:00,
2013-04-25 13:31:00,42.0,30.7,30.22,West,273,2.0,4.0,64,0.00,,FEW026,0.00,VWS V14.01,2013-04-25 18:31:00,
2013-04-25 13:35:00,42.4,31.1,30.22,South,188,5.0,9.0,64,0.00,,CLR,0.00,VWS V14.01,2013-04-25 18:35:00,
2013-04-25 13:36:00,42.4,30.3,30.22,SW,227,5.0,6.0,62,0.00,,BKN030,0.00,VWS V14.01,2013-04-25 18:36:00,
2013-04-25 13:40:00,41.9,31.4,30.22,South,186,9.0,11.0,66,0.00,,CLR,0.00,VWS V14.01,2013-04-25 18:40:00,
2013-04-25 13:41:00,41.9,29.5,30.22,SSW,194,2.0,2.0,61,0.00,,BKN030,0.00,VWS V14.01,2013-04-25 18:41:00,
2013-04-25 13:45:00,42.4,29.9,30.22,South,179,6.0,7.0,61,0.00,,CLR,0.00,VWS V14.01,2013-04-25 18:45:00,
2013-04-25 13:46:00,42.3,29.8,30.22,South,169,5.0,9.0,61,0.00,,BKN030,0.00,VWS V14.01,2013-04-25 18:46:00,
2013-04-25 13:50:00,42.4,29.1,30.22,SSE,159,4.0,5.0,59,0.00,,CLR,0.00,VWS V14.01,2013-04-25 18:50:00,
2013-04-25 13:51:00,42.5,30.0,30.22,South,188,1.0,3.0,61,0.00,,BKN030,0.00,VWS V14.01,2013-04-25 18:51:00,
2013-04-25 13:55:00,42.6,29.3,30.22,SW,219,3.0,4.0,59,0.00,,CLR,0.00,VWS V14.01,2013-04-25 18:55:00,
2013-04-25 13:57:00,42.4,29.1,30.22,West,277,4.0,4.0,59,0.00,,BKN030,0.00,VWS V14.01,2013-04-25 18:57:00,
2013-04-25 14:00:00,43.3,30.4,30.22,SSE,159,7.0,7.0,60,0.00,,CLR,0.00,VWS V14.01,2013-04-25 19:00:00,
2013-04-25 14:02:00,43.1,31.4,30.22,SSE,150,3.0,5.0,63,0.00,,BKN030,0.00,VWS V14.01,2013-04-25 19:02:00,
2013-04-25 14:05:00,43.6,29.0,30.21,SSE,168,9.0,11.0,56,0.00,,CLR,0.00,VWS V14.01,2013-04-25 19:05:00,
2013-04-25 14:07:00,43.5,29.3,30.22,WSW,257,3.0,6.0,57,0.00,,BKN030,0.00,VWS V14.01,2013-04-25 19:07:00,
2013-04-25 14:10:00,43.5,29.7,30.22,South,187,11.0,12.0,58,0.00,,CLR,0.00,VWS V14.01,2013-04-25 19:10:00,
2013-04-25 14:12:00,43.4,27.9,30.21,West,259,3.0,6.0,54,0.00,,BKN030,0.00,VWS V14.01,2013-04-25 19:12:00,
2013-04-25 14:15:00,43.3,29.5,30.21,SW,227,5.0,6.0,58,0.00,,CLR,0.00,VWS V14.01,2013-04-25 19:15:00,
2013-04-25 14:17:00,43.3,28.7,30.21,South,188,6.0,6.0,56,0.00,,BKN030,0.00,VWS V14.01,2013-04-25 19:17:00,
2013-04-25 14:20:00,44.0,30.6,30.21,SW,236,6.0,7.0,59,0.00,,CLR,0.00,VWS V14.01,2013-04-25 19:20:00,
2013-04-25 14:22:00,43.7,29.0,30.21,SW,218,5.0,5.0,56,0.00,,BKN030,0.00,VWS V14.01,2013-04-25 19:22:00,
2013-04-25 14:25:00,44.3,29.2,30.20,SSW,209,3.0,4.0,55,0.00,,CLR,0.00,VWS V14.01,2013-04-25 19:25:00,
2013-04-25 14:27:00,44.2,28.2,30.20,NNW,347,4.0,4.0,53,0.00,,BKN030,0.00,VWS V14.01,2013-04-25 19:27:00,
2013-04-25 14:30:00,44.9,31.5,30.20,SW,223,5.0,5.0,59,0.00,,CLR,0.00,VWS V14.01,2013-04-25 19:30:00,
2013-04-25 14:32:00,44.6,30.3,30.20,South,188,3.0,4.0,57,0.00,,BKN030,0.00,VWS V14.01,2013-04-25 19:32:00,
2013-04-25 14:35:00,45.0,28.0,30.20,South,188,3.0,3.0,51,0.00,,CLR,0.00,VWS V14.01,2013-04-25 19:35:00,
2013-04-25 14:38:00,45.0,28.0,30.20,SW,219,5.0,6.0,51,0.00,,FEW034,0.00,VWS V14.01,2013-04-25 19:38:00,
2013-04-25 14:40:00,44.9,28.4,30.21,WSW,238,3.0,5.0,52,0.00,,CLR,0.00,VWS V14.01,2013-04-25 19:40:00,
2013-04-25 14:43:00,45.0,27.5,30.21,South,175,4.0,6.0,50,0.00,,FEW034,0.00,VWS V14.01,2013-04-25 19:43:00,
2013-04-25 14:45:00,45.4,31.1,30.20,SSE,168,6.0,8.0,57,0.00,,CLR,0.00,VWS V14.01,2013-04-25 19:45:00,
2013-04-25 14:48:00,45.1,30.8,30.20,South,188,6.0,6.0,57,0.00,,FEW034,0.00,VWS V14.01,2013-04-25 19:48:00,
2013-04-25 14:50:00,45.6,28.5,30.20,SW,227,9.0,11.0,51,0.00,,CLR,0.00,VWS V14.01,2013-04-25 19:50:00,
2013-04-25 14:53:00,45.6,28.5,30.20,South,176,5.0,10.0,51,0.00,,FEW034,0.00,VWS V14.01,2013-04-25 19:53:00,
2013-04-25 14:55:00,45.1,29.0,30.20,South,190,7.0,7.0,53,0.00,,CLR,0.00,VWS V14.01,2013-04-25 19:55:00,
2013-04-25 14:58:00,45.1,29.0,30.20,SW,219,4.0,10.0,53,0.00,,FEW034,0.00,VWS V14.01,2013-04-25 19:58:00,
2013-04-25 15:00:00,45.3,29.6,30.20,SSW,200,3.0,3.0,54,0.00,,CLR,0.00,VWS V14.01,2013-04-25 20:00:00,
2013-04-25 15:03:00,45.2,29.6,30.20,SSW,201,5.0,5.0,54,0.00,,FEW034,0.00,VWS V14.01,2013-04-25 20:03:00,
2013-04-25 15:05:00,45.4,27.9,30.20,SSW,205,10.0,11.0,50,0.00,,CLR,0.00,VWS V14.01,2013-04-25 20:05:00,
2013-04-25 15:08:00,45.4,27.9,30.20,South,186,6.0,10.0,50,0.00,,FEW034,0.00,VWS V14.01,2013-04-25 20:08:00,
2013-04-25 15:10:00,45.6,29.5,30.19,SSW,202,7.0,9.0,53,0.00,,CLR,0.00,VWS V14.01,2013-04-25 20:10:00,
2013-04-25 15:13:00,45.6,29.5,30.19,South,191,9.0,12.0,53,0.00,,FEW034,0.00,VWS V14.01,2013-04-25 20:13:00,
2013-04-25 15:15:00,45.8,28.2,30.19,SSW,199,4.0,5.0,50,0.00,,CLR,0.00,VWS V14.01,2013-04-25 20:15:00,
2013-04-25 15:18:00,45.8,28.2,30.19,SSW,199,4.0,5.0,50,0.00,,FEW034,0.00,VWS V14.01,2013-04-25 20:18:00,
2013-04-25 15:20:00,46.2,29.6,30.19,South,173,9.0,14.0,52,0.00,,CLR,0.00,VWS V14.01,2013-04-25 20:20:00,
2013-04-25 15:23:00,46.2,29.6,30.19,South,173,9.0,14.0,52,0.00,,FEW034,0.00,VWS V14.01,2013-04-25 20:23:00,
2013-04-25 15:25:00,46.1,29.0,30.19,South,184,8.0,8.0,51,0.00,,CLR,0.00,VWS V14.01,2013-04-25 20:25:00,
2013-04-25 15:28:00,46.1,29.0,30.19,South,184,8.0,8.0,51,0.00,,FEW034,0.00,VWS V14.01,2013-04-25 20:28:00,
2013-04-25 15:30:00,46.5,32.1,30.19,South,184,7.0,11.0,57,0.00,,CLR,0.00,VWS V14.01,2013-04-25 20:30:00,
2013-04-25 15:33:00,46.5,32.1,30.19,South,184,7.0,11.0,57,0.00,,FEW034,0.00,VWS V14.01,2013-04-25 20:33:00,
2013-04-25 15:35:00,46.6,29.0,30.19,SSW,200,11.0,11.0,50,0.00,,CLR,0.00,VWS V14.01,2013-04-25 20:35:00,
2013-04-25 15:38:00,46.6,29.0,30.19,SSW,200,11.0,11.0,50,0.00,,CLR,0.00,VWS V14.01,2013-04-25 20:38:00,
2013-04-25 15:40:00,46.7,29.1,30.19,South,172,5.0,6.0,50,0.00,,CLR,0.00,VWS V14.01,2013-04-25 20:40:00,
2013-04-25 15:44:00,46.8,29.2,30.19,SSW,200,6.0,7.0,50,0.00,,CLR,0.00,VWS V14.01,2013-04-25 20:44:00,
2013-04-25 15:45:00,47.1,27.4,30.19,West,268,3.0,5.0,46,0.00,,CLR,0.00,VWS V14.01,2013-04-25 20:45:00,
2013-04-25 15:49:00,47.1,27.4,30.19,West,268,2.0,4.0,46,0.00,,CLR,0.00,VWS V14.01,2013-04-25 20:49:00,
2013-04-25 15:50:00,47.4,28.7,30.19,SW,236,1.0,2.0,48,0.00,,CLR,0.00,VWS V14.01,2013-04-25 20:50:00,
2013-04-25 15:54:00,47.5,28.8,30.19,SSW,205,1.0,2.0,48,0.00,,CLR,0.00,VWS V14.01,2013-04-25 20:54:00,
2013-04-25 15:55:00,47.5,26.7,30.19,SW,221,12.0,12.0,44,0.00,,CLR,0.00,VWS V14.01,2013-04-25 20:55:00,
2013-04-25 15:59:00,47.4,26.6,30.19,South,191,5.0,5.0,44,0.00,,CLR,0.00,VWS V14.01,2013-04-25 20:59:00,
2013-04-25 16:00:00,47.4,24.9,30.19,SW,222,5.0,6.0,41,0.00,,CLR,0.00,VWS V14.01,2013-04-25 21:00:00,
2013-04-25 16:04:00,47.4,24.9,30.19,SW,225,3.0,5.0,41,0.00,,CLR,0.00,VWS V14.01,2013-04-25 21:04:00,
2013-04-25 16:05:00,47.7,30.0,30.19,SSW,199,11.0,11.0,50,0.00,,CLR,0.00,VWS V14.01,2013-04-25 21:05:00,
2013-04-25 16:09:00,47.8,30.1,30.19,SSW,192,3.0,5.0,50,0.00,,CLR,0.00,VWS V14.01,2013-04-25 21:09:00,
2013-04-25 16:10:00,47.8,27.5,30.19,South,178,10.0,10.0,45,0.00,,CLR,0.00,VWS V14.01,2013-04-25 21:10:00,
2013-04-25 16:14:00,47.9,27.6,30.19,SSW,205,11.0,11.0,45,0.00,,CLR,0.00,VWS V14.01,2013-04-25 21:14:00,
2013-04-25 16:15:00,47.9,31.1,30.19,SSW,200,10.0,11.0,52,0.00,,CLR,0.00,VWS V14.01,2013-04-25 21:15:00,
2013-04-25 16:19:00,47.8,29.6,30.19,WSW,244,5.0,10.0,49,0.00,,CLR,0.00,VWS V14.01,2013-04-25 21:19:00,
2013-04-25 16:20:00,47.4,28.7,30.19,SW,221,12.0,12.0,48,0.00,,CLR,0.00,VWS V14.01,2013-04-25 21:20:00,
2013-04-25 16:25:00,47.4,28.7,30.19,SSE,159,6.0,7.0,48,0.00,,CLR,0.00,VWS V14.01,2013-04-25 21:25:00,
2013-04-25 16:30:00,47.8,30.6,30.19,SSW,211,12.0,18.0,51,0.00,,CLR,0.00,VWS V14.01,2013-04-25 21:30:00,
2013-04-25 16:35:00,47.3,28.6,30.19,South,178,4.0,6.0,48,0.00,,CLR,0.00,VWS V14.01,2013-04-25 21:35:00,
2013-04-25 16:40:00,47.9,29.7,30.18,SSW,193,4.0,4.0,49,0.00,,CLR,0.00,VWS V14.01,2013-04-25 21:40:00,
2013-04-25 16:45:00,47.8,29.1,30.18,South,184,11.0,14.0,48,0.00,,CLR,0.00,VWS V14.01,2013-04-25 21:45:00,
2013-04-25 16:50:00,47.6,29.4,30.18,South,191,11.0,11.0,49,0.00,,CLR,0.00,VWS V14.01,2013-04-25 21:50:00,
2013-04-25 16:55:00,47.7,29.5,30.18,SSE,168,11.0,11.0,49,0.00,,CLR,0.00,VWS V14.01,2013-04-25 21:55:00,
2013-04-25 17:00:00,47.9,29.7,30.18,South,171,6.0,9.0,49,0.00,,CLR,0.00,VWS V14.01,2013-04-25 22:00:00,
2013-04-25 17:05:00,48.1,28.8,30.18,South,175,6.0,6.0,47,0.00,,CLR,0.00,VWS V14.01,2013-04-25 22:05:00,
2013-04-25 17:10:00,48.4,28.6,30.17,SSW,211,2.0,3.0,46,0.00,,CLR,0.00,VWS V14.01,2013-04-25 22:10:00,
2013-04-25 17:11:00,48.3,30.0,30.17,WSW,254,2.0,4.0,49,0.00,,CLR,0.00,VWS V14.01,2013-04-25 22:11:00,
2013-04-25 17:15:00,48.3,29.5,30.17,South,184,13.0,13.0,48,0.00,,CLR,0.00,VWS V14.01,2013-04-25 22:15:00,
2013-04-25 17:16:00,48.4,29.1,30.18,SSE,164,3.0,5.0,47,0.00,,CLR,0.00,VWS V14.01,2013-04-25 22:16:00,
2013-04-25 17:20:00,48.1,29.4,30.18,SSW,197,2.0,5.0,48,0.00,,CLR,0.00,VWS V14.01,2013-04-25 22:20:00,
2013-04-25 17:21:00,48.3,30.5,30.18,South,179,8.0,10.0,50,0.00,,CLR,0.00,VWS V14.01,2013-04-25 22:21:00,
2013-04-25 17:25:00,48.2,30.0,30.17,South,171,6.0,9.0,49,0.00,,CLR,0.00,VWS V14.01,2013-04-25 22:25:00,
2013-04-25 17:26:00,48.1,29.9,30.18,South,169,3.0,5.0,49,0.00,,CLR,0.00,VWS V14.01,2013-04-25 22:26:00,
2013-04-25 17:30:00,48.2,29.5,30.17,South,180,7.0,9.0,48,0.00,,CLR,0.00,VWS V14.01,2013-04-25 22:30:00,
2013-04-25 17:31:00,48.3,30.5,30.17,South,184,10.0,10.0,50,0.00,,CLR,0.00,VWS V14.01,2013-04-25 22:31:00,
2013-04-25 17:35:00,48.1,30.4,30.17,South,169,9.0,12.0,50,0.00,,CLR,0.00,VWS V14.01,2013-04-25 22:35:00,
2013-04-25 17:36:00,48.2,31.9,30.17,South,174,10.0,10.0,53,0.00,,CLR,0.00,VWS V14.01,2013-04-25 22:36:00,
2013-04-25 17:40:00,48.3,32.0,30.17,SE,140,9.0,9.0,53,0.00,,CLR,0.00,VWS V14.01,2013-04-25 22:40:00,
2013-04-25 17:41:00,48.1,30.8,30.17,ESE,110,6.0,6.0,51,0.00,,CLR,0.00,VWS V14.01,2013-04-25 22:41:00,
2013-04-25 17:45:00,48.5,30.2,30.17,SSW,207,11.0,12.0,49,0.00,,CLR,0.00,VWS V14.01,2013-04-25 22:45:00,
2013-04-25 17:46:00,48.5,31.2,30.17,SSE,157,7.0,10.0,51,0.00,,CLR,0.00,VWS V14.01,2013-04-25 22:46:00,
2013-04-25 17:50:00,48.3,30.0,30.17,SSE,162,13.0,13.0,49,0.00,,CLR,0.00,VWS V14.01,2013-04-25 22:50:00,
2013-04-25 17:51:00,48.3,30.5,30.17,South,177,6.0,7.0,50,0.00,,CLR,0.00,VWS V14.01,2013-04-25 22:51:00,
2013-04-25 17:55:00,48.1,30.4,30.17,South,170,6.0,6.0,50,0.00,,CLR,0.00,VWS V14.01,2013-04-25 22:55:00,
2013-04-25 17:57:00,48.3,30.0,30.17,SSE,162,10.0,10.0,49,0.00,,CLR,0.00,VWS V14.01,2013-04-25 22:57:00,
2013-04-25 18:00:00,48.1,31.8,30.17,SSE,163,4.0,5.0,53,0.00,,CLR,0.00,VWS V14.01,2013-04-25 23:00:00,
2013-04-25 18:02:00,48.1,30.4,30.17,SSE,161,8.0,9.0,50,0.00,,CLR,0.00,VWS V14.01,2013-04-25 23:02:00,
2013-04-25 18:05:00,48.3,30.0,30.17,SSE,155,7.0,9.0,49,0.00,,CLR,0.00,VWS V14.01,2013-04-25 23:05:00,
2013-04-25 18:07:00,48.5,31.2,30.17,SSE,153,13.0,13.0,51,0.00,,CLR,0.00,VWS V14.01,2013-04-25 23:07:00,
2013-04-25 18:10:00,48.1,30.8,30.17,SE,137,4.0,7.0,51,0.00,,CLR,0.00,VWS V14.01,2013-04-25 23:10:00,
2013-04-25 18:12:00,48.1,30.8,30.17,SSE,166,13.0,14.0,51,0.00,,CLR,0.00,VWS V14.01,2013-04-25 23:12:00,
2013-04-25 18:15:00,48.1,29.9,30.17,SSW,192,10.0,11.0,49,0.00,,CLR,0.00,VWS V14.01,2013-04-25 23:15:00,
2013-04-25 18:17:00,48.2,30.0,30.17,South,188,10.0,14.0,49,0.00,,CLR,0.00,VWS V14.01,2013-04-25 23:17:00,
2013-04-25 18:20:00,47.5,29.8,30.16,South,186,6.0,6.0,50,0.00,,CLR,0.00,VWS V14.01,2013-04-25 23:20:00,
2013-04-25 18:22:00,47.6,29.9,30.16,South,176,9.0,10.0,50,0.00,,CLR,0.00,VWS V14.01,2013-04-25 23:22:00,
2013-04-25 18:25:00,47.8,31.5,30.16,SSE,163,7.0,10.0,53,0.00,,CLR,0.00,VWS V14.01,2013-04-25 23:25:00,
2013-04-25 18:27:00,47.7,31.4,30.16,SSE,166,11.0,14.0,53,0.00,,CLR,0.00,VWS V14.01,2013-04-25 23:27:00,
2013-04-25 18:30:00,47.9,31.6,30.16,SSW,195,10.0,10.0,53,0.00,,CLR,0.00,VWS V14.01,2013-04-25 23:30:00,
2013-04-25 18:32:00,47.9,30.2,30.16,SSE,163,6.0,9.0,50,0.00,,CLR,0.00,VWS V14.01,2013-04-25 23:32:00,
2013-04-25 18:35:00,47.7,30.5,30.16,SSE,167,10.0,10.0,51,0.00,,CLR,0.00,VWS V14.01,2013-04-25 23:35:00,
2013-04-25 18:37:00,47.7,31.0,30.16,South,191,7.0,8.0,52,0.00,,CLR,0.00,VWS V14.01,2013-04-25 23:37:00,
2013-04-25 18:40:00,47.5,30.3,30.16,SSE,152,7.0,8.0,51,0.00,,CLR,0.00,VWS V14.01,2013-04-25 23:40:00,
2013-04-25 18:43:00,47.5,30.3,30.16,SSE,156,11.0,11.0,51,0.00,,CLR,0.00,VWS V14.01,2013-04-25 23:43:00,
2013-04-25 18:45:00,47.2,31.4,30.16,SE,146,7.0,7.0,54,0.00,,CLR,0.00,VWS V14.01,2013-04-25 23:45:00,
2013-04-25 18:48:00,47.2,31.4,30.16,SSE,155,6.0,8.0,54,0.00,,CLR,0.00,VWS V14.01,2013-04-25 23:48:00,
2013-04-25 18:50:00,47.1,31.3,30.16,SE,142,7.0,8.0,54,0.00,,CLR,0.00,VWS V14.01,2013-04-25 23:50:00,
2013-04-25 18:53:00,47.1,31.8,30.16,SE,136,7.0,8.0,55,0.00,,CLR,0.00,VWS V14.01,2013-04-25 23:53:00,
2013-04-25 18:55:00,46.9,30.7,30.16,SSE,167,7.0,8.0,53,0.00,,CLR,0.00,VWS V14.01,2013-04-25 23:55:00,
2013-04-25 18:58:00,47.0,31.7,30.16,South,171,9.0,11.0,55,0.00,,CLR,0.00,VWS V14.01,2013-04-25 23:58:00,
2013-04-25 19:00:00,46.9,30.7,30.17,SSE,161,8.0,9.0,53,0.00,,CLR,0.00,VWS V14.01,2013-04-26 00:00:00,
2013-04-25 19:03:00,46.9,30.7,30.17,SSE,161,8.0,10.0,53,0.00,,CLR,0.00,VWS V14.01,2013-04-26 00:03:00,
2013-04-25 19:05:00,46.7,31.0,30.16,South,185,10.0,10.0,54,0.00,,CLR,0.00,VWS V14.01,2013-04-26 00:05:00,
2013-04-25 19:08:00,46.7,31.0,30.16,South,178,6.0,8.0,54,0.00,,SCT110,0.00,VWS V14.01,2013-04-26 00:08:00,
2013-04-25 19:10:00,46.5,31.2,30.16,South,173,6.0,7.0,55,0.00,,CLR,0.00,VWS V14.01,2013-04-26 00:10:00,
2013-04-25 19:13:00,46.5,31.2,30.16,South,173,7.0,7.0,55,0.00,,SCT110,0.00,VWS V14.01,2013-04-26 00:13:00,
2013-04-25 19:15:00,46.4,31.1,30.16,SSE,165,9.0,9.0,55,0.00,,CLR,0.00,VWS V14.01,2013-04-26 00:15:00,
2013-04-25 19:18:00,46.4,31.1,30.16,South,175,6.0,7.0,55,0.00,,SCT110,0.00,VWS V14.01,2013-04-26 00:18:00,
2013-04-25 19:20:00,46.2,31.4,30.16,SSE,157,9.0,9.0,56,0.00,,CLR,0.00,VWS V14.01,2013-04-26 00:20:00,
2013-04-25 19:23:00,46.2,31.4,30.16,SSE,157,9.0,9.0,56,0.00,,SCT110,0.00,VWS V14.01,2013-04-26 00:23:00,
2013-04-25 19:25:00,45.9,31.1,30.16,SSE,167,6.0,7.0,56,0.00,,CLR,0.00,VWS V14.01,2013-04-26 00:25:00,
2013-04-25 19:28:00,45.9,31.1,30.16,SSE,167,6.0,7.0,56,0.00,,SCT110,0.00,VWS V14.01,2013-04-26 00:28:00,
2013-04-25 19:30:00,45.8,32.3,30.16,SSE,168,9.0,9.0,59,0.00,,CLR,0.00,VWS V14.01,2013-04-26 00:30:00,
2013-04-25 19:33:00,45.8,32.3,30.16,SSE,168,9.0,9.0,59,0.00,,SCT110,0.00,VWS V14.01,2013-04-26 00:33:00,
2013-04-25 19:35:00,45.6,32.1,30.16,SSE,164,10.0,10.0,59,0.00,,CLR,0.00,VWS V14.01,2013-04-26 00:35:00,
2013-04-25 19:38:00,45.6,32.1,30.16,SSE,164,10.0,10.0,59,0.00,,SCT110,0.00,VWS V14.01,2013-04-26 00:38:00,
2013-04-25 19:40:00,45.3,32.2,30.16,South,173,9.0,10.0,60,0.00,,CLR,0.00,VWS V14.01,2013-04-26 00:40:00,
2013-04-25 19:43:00,45.3,32.2,30.16,South,173,9.0,10.0,60,0.00,,SCT110,0.00,VWS V14.01,2013-04-26 00:43:00,
2013-04-25 19:45:00,45.0,32.8,30.16,SSE,157,8.0,8.0,62,0.00,,CLR,0.00,VWS V14.01,2013-04-26 00:45:00,
2013-04-25 19:48:00,45.0,32.8,30.16,SSE,157,8.0,8.0,62,0.00,,SCT110,0.00,VWS V14.01,2013-04-26 00:48:00,
2013-04-25 19:50:00,45.0,31.5,30.16,SSE,161,7.0,8.0,59,0.00,,CLR,0.00,VWS V14.01,2013-04-26 00:50:00,
2013-04-25 19:53:00,45.0,31.5,30.16,SSE,161,7.0,8.0,59,0.00,,SCT110,0.00,VWS V14.01,2013-04-26 00:53:00,
2013-04-25 19:55:00,44.9,32.3,30.16,SSE,161,8.0,9.0,61,0.00,,CLR,0.00,VWS V14.01,2013-04-26 00:55:00,
2013-04-25 19:58:00,44.9,32.3,30.16,SSE,161,8.0,9.0,61,0.00,,SCT110,0.00,VWS V14.01,2013-04-26 00:58:00,
2013-04-25 20:00:00,44.8,33.0,30.16,SSE,151,7.0,7.0,63,0.00,,CLR,0.00,VWS V14.01,2013-04-26 01:00:00,
2013-04-25 20:03:00,44.8,33.0,30.16,SSE,151,7.0,7.0,63,0.00,,SCT110,0.00,VWS V14.01,2013-04-26 01:03:00,
2013-04-25 20:05:00,44.6,32.8,30.16,SSE,150,4.0,4.0,63,0.00,,CLR,0.00,VWS V14.01,2013-04-26 01:05:00,
2013-04-25 20:08:00,44.6,32.8,30.16,SSE,150,4.0,4.0,63,0.00,,SCT110,0.00,VWS V14.01,2013-04-26 01:08:00,
2013-04-25 20:10:00,44.2,33.2,30.17,SSE,148,6.0,6.0,65,0.00,,CLR,0.00,VWS V14.01,2013-04-26 01:10:00,
2013-04-25 20:13:00,44.2,33.2,30.17,SSE,148,6.0,6.0,65,0.00,,SCT110,0.00,VWS V14.01,2013-04-26 01:13:00,
2013-04-25 20:15:00,43.8,32.8,30.17,SSE,155,5.0,5.0,65,0.00,,CLR,0.00,VWS V14.01,2013-04-26 01:15:00,
2013-04-25 20:18:00,43.8,32.8,30.17,SSE,155,5.0,5.0,65,0.00,,SCT110,0.00,VWS V14.01,2013-04-26 01:18:00,
2013-04-25 20:20:00,43.8,32.8,30.16,SSE,157,4.0,6.0,65,0.00,,CLR,0.00,VWS V14.01,2013-04-26 01:20:00,
2013-04-25 20:23:00,43.8,32.8,30.16,SSE,157,4.0,6.0,65,0.00,,SCT110,0.00,VWS V14.01,2013-04-26 01:23:00,
2013-04-25 20:25:00,43.9,33.3,30.17,SSE,157,5.0,6.0,66,0.00,,CLR,0.00,VWS V14.01,2013-04-26 01:25:00,
2013-04-25 20:28:00,43.9,33.3,30.17,SSE,157,5.0,6.0,66,0.00,,SCT110,0.00,VWS V14.01,2013-04-26 01:28:00,
2013-04-25 20:30:00,43.9,32.5,30.16,SE,144,3.0,5.0,64,0.00,,CLR,0.00,VWS V14.01,2013-04-26 01:30:00,
2013-04-25 20:33:00,43.9,32.5,30.16,SE,144,3.0,5.0,64,0.00,,SCT110,0.00,VWS V14.01,2013-04-26 01:33:00,
2013-04-25 20:35:00,44.0,32.6,30.16,SE,138,1.0,2.0,64,0.00,,CLR,0.00,VWS V14.01,2013-04-26 01:35:00,
2013-04-25 20:38:00,44.0,32.6,30.16,SE,138,1.0,2.0,64,0.00,,CLR,0.00,VWS V14.01,2013-04-26 01:38:00,
2013-04-25 20:40:00,43.8,32.4,30.16,SE,140,3.0,3.0,64,0.00,,CLR,0.00,VWS V14.01,2013-04-26 01:40:00,
2013-04-25 20:43:00,43.8,32.4,30.16,SE,140,3.0,3.0,64,0.00,,CLR,0.00,VWS V14.01,2013-04-26 01:43:00,
2013-04-25 20:45:00,43.6,32.2,30.15,East,98,2.0,3.0,64,0.00,,CLR,0.00,VWS V14.01,2013-04-26 01:45:00,
2013-04-25 20:48:00,43.6,32.2,30.15,East,98,2.0,3.0,64,0.00,,CLR,0.00,VWS V14.01,2013-04-26 01:48:00,
2013-04-25 20:50:00,43.4,32.4,30.16,SSE,152,6.0,6.0,65,0.00,,CLR,0.00,VWS V14.01,2013-04-26 01:50:00,
2013-04-25 20:53:00,43.4,32.4,30.16,SSE,152,6.0,6.0,65,0.00,,CLR,0.00,VWS V14.01,2013-04-26 01:53:00,
2013-04-25 20:55:00,43.5,32.2,30.16,SE,145,3.0,3.0,64,0.00,,CLR,0.00,VWS V14.01,2013-04-26 01:55:00,
2013-04-25 20:58:00,43.5,32.2,30.16,SE,145,3.0,3.0,64,0.00,,CLR,0.00,VWS V14.01,2013-04-26 01:58:00,
2013-04-25 21:00:00,43.5,32.5,30.16,SSE,162,0.0,0.0,65,0.00,,CLR,0.00,VWS V14.01,2013-04-26 02:00:00,
2013-04-25 21:03:00,43.5,32.5,30.16,SSE,162,0.0,0.0,65,0.00,,CLR,0.00,VWS V14.01,2013-04-26 02:03:00,
2013-04-25 21:05:00,43.2,32.2,30.16,SE,141,3.0,3.0,65,0.00,,CLR,0.00,VWS V14.01,2013-04-26 02:05:00,
2013-04-25 21:08:00,43.2,32.2,30.16,SE,141,3.0,3.0,65,0.00,,CLR,0.00,VWS V14.01,2013-04-26 02:08:00,
2013-04-25 21:10:00,43.0,32.1,30.15,East,94,2.0,4.0,65,0.00,,CLR,0.00,VWS V14.01,2013-04-26 02:10:00,
2013-04-25 21:13:00,43.0,32.1,30.15,East,94,2.0,4.0,65,0.00,,CLR,0.00,VWS V14.01,2013-04-26 02:13:00,
2013-04-25 21:15:00,42.9,32.3,30.16,SE,130,0.0,2.0,66,0.00,,CLR,0.00,VWS V14.01,2013-04-26 02:15:00,
2013-04-25 21:18:00,42.9,32.3,30.16,SE,130,0.0,2.0,66,0.00,,CLR,0.00,VWS V14.01,2013-04-26 02:18:00,
2013-04-25 21:20:00,42.8,31.9,30.15,ESE,120,2.0,2.0,65,0.00,,CLR,0.00,VWS V14.01,2013-04-26 02:20:00,
2013-04-25 21:23:00,42.8,31.9,30.15,ESE,120,2.0,2.0,65,0.00,,CLR,0.00,VWS V14.01,2013-04-26 02:23:00,
2013-04-25 21:25:00,42.8,31.9,30.15,SE,140,2.0,2.0,65,0.00,,CLR,0.00,VWS V14.01,2013-04-26 02:25:00,
2013-04-25 21:28:00,42.8,31.9,30.15,SE,140,2.0,2.0,65,0.00,,CLR,0.00,VWS V14.01,2013-04-26 02:28:00,
2013-04-25 21:30:00,42.8,32.2,30.15,SE,143,2.0,3.0,66,0.00,,CLR,0.00,VWS V14.01,2013-04-26 02:30:00,
2013-04-25 21:33:00,42.8,32.2,30.15,SE,143,2.0,3.0,66,0.00,,CLR,0.00,VWS V14.01,2013-04-26 02:33:00,
2013-04-25 21:35:00,42.7,32.2,30.15,SSE,152,3.0,5.0,66,0.00,,CLR,0.00,VWS V14.01,2013-04-26 02:35:00,
2013-04-25 21:38:00,42.7,32.2,30.15,SSE,152,3.0,5.0,66,0.00,,CLR,0.00,VWS V14.01,2013-04-26 02:38:00,
2013-04-25 21:40:00,42.7,31.4,30.14,SE,140,3.0,3.0,64,0.00,,CLR,0.00,VWS V14.01,2013-04-26 02:40:00,
2013-04-25 21:43:00,42.7,31.4,30.14,SE,140,3.0,3.0,64,0.00,,CLR,0.00,VWS V14.01,2013-04-26 02:43:00,
2013-04-25 21:45:00,42.8,32.2,30.15,ESE,123,3.0,3.0,66,0.00,,CLR,0.00,VWS V14.01,2013-04-26 02:45:00,
2013-04-25 21:48:00,42.8,32.2,30.15,ESE,123,3.0,3.0,66,0.00,,CLR,0.00,VWS V14.01,2013-04-26 02:48:00,
2013-04-25 21:50:00,42.7,31.8,30.14,South,171,2.0,4.0,65,0.00,,CLR,0.00,VWS V14.01,2013-04-26 02:50:00,
2013-04-25 21:53:00,42.7,31.8,30.14,South,171,2.0,4.0,65,0.00,,CLR,0.00,VWS V14.01,2013-04-26 02:53:00,
2013-04-25 21:55:00,42.7,31.8,30.15,SE,129,5.0,5.0,65,0.00,,CLR,0.00,VWS V14.01,2013-04-26 02:55:00,
2013-04-25 21:58:00,42.7,31.8,30.15,SE,129,5.0,5.0,65,0.00,,CLR,0.00,VWS V14.01,2013-04-26 02:58:00,
2013-04-25 22:00:00,42.8,31.5,30.14,SE,134,1.0,2.0,64,0.00,,CLR,0.00,VWS V14.01,2013-04-26 03:00:00,
2013-04-25 22:03:00,42.8,31.5,30.14,SE,134,1.0,2.0,64,0.00,,CLR,0.00,VWS V14.01,2013-04-26 03:03:00,
2013-04-25 22:05:00,42.8,31.5,30.14,SE,139,5.0,5.0,64,0.00,,CLR,0.00,VWS V14.01,2013-04-26 03:05:00,
2013-04-25 22:08:00,42.8,31.5,30.14,SE,139,5.0,5.0,64,0.00,,CLR,0.00,VWS V14.01,2013-04-26 03:08:00,
2013-04-25 22:10:00,42.9,31.6,30.14,East,98,1.0,1.0,64,0.00,,CLR,0.00,VWS V14.01,2013-04-26 03:10:00,
2013-04-25 22:13:00,42.9,31.6,30.14,East,98,1.0,1.0,64,0.00,,CLR,0.00,VWS V14.01,2013-04-26 03:13:00,
2013-04-25 22:15:00,42.9,31.2,30.14,ESE,123,4.0,7.0,63,0.00,,CLR,0.00,VWS V14.01,2013-04-26 03:15:00,
2013-04-25 22:18:00,42.9,31.2,30.14,ESE,123,4.0,7.0,63,0.00,,CLR,0.00,VWS V14.01,2013-04-26 03:18:00,
2013-04-25 22:20:00,43.1,31.0,30.14,SSE,155,2.0,3.0,62,0.00,,CLR,0.00,VWS V14.01,2013-04-26 03:20:00,
2013-04-25 22:23:00,43.1,31.0,30.14,SSE,155,2.0,3.0,62,0.00,,CLR,0.00,VWS V14.01,2013-04-26 03:23:00,
2013-04-25 22:25:00,43.1,31.4,30.13,SE,144,5.0,6.0,63,0.00,,CLR,0.00,VWS V14.01,2013-04-26 03:25:00,
2013-04-25 22:28:00,43.1,31.4,30.13,SE,144,5.0,6.0,63,0.00,,CLR,0.00,VWS V14.01,2013-04-26 03:28:00,
2013-04-25 22:30:00,43.0,31.3,30.13,SE,125,0.0,1.0,63,0.00,,CLR,0.00,VWS V14.01,2013-04-26 03:30:00,
2013-04-25 22:33:00,43.0,31.3,30.13,SE,142,1.0,1.0,63,0.00,,CLR,0.00,VWS V14.01,2013-04-26 03:33:00,
2013-04-25 22:35:00,42.9,31.6,30.13,SE,135,2.0,2.0,64,0.00,,CLR,0.00,VWS V14.01,2013-04-26 03:35:00,
2013-04-25 22:38:00,42.9,31.6,30.13,SE,135,2.0,2.0,64,0.00,,CLR,0.00,VWS V14.01,2013-04-26 03:38:00,
2013-04-25 22:40:00,42.8,31.5,30.13,SSE,159,3.0,7.0,64,0.00,,CLR,0.00,VWS V14.01,2013-04-26 03:40:00,
2013-04-25 22:43:00,42.8,31.5,30.13,SSE,159,3.0,7.0,64,0.00,,CLR,0.00,VWS V14.01,2013-04-26 03:43:00,
2013-04-25 22:45:00,42.8,31.1,30.13,SE,139,3.0,3.0,63,0.00,,CLR,0.00,VWS V14.01,2013-04-26 03:45:00,
2013-04-25 22:48:00,42.8,31.1,30.13,SE,139,3.0,3.0,63,0.00,,CLR,0.00,VWS V14.01,2013-04-26 03:48:00,
2013-04-25 22:50:00,42.7,31.4,30.13,SE,142,0.0,0.0,64,0.00,,CLR,0.00,VWS V14.01,2013-04-26 03:50:00,
2013-04-25 22:53:00,42.7,31.4,30.13,SE,142,0.0,0.0,64,0.00,,CLR,0.00,VWS V14.01,2013-04-26 03:53:00,
2013-04-25 22:55:00,42.7,31.0,30.13,SSE,153,3.0,3.0,63,0.00,,CLR,0.00,VWS V14.01,2013-04-26 03:55:00,
2013-04-25 22:58:00,42.7,31.0,30.13,SSE,153,3.0,3.0,63,0.00,,CLR,0.00,VWS V14.01,2013-04-26 03:58:00,
2013-04-25 23:00:00,42.7,31.0,30.12,SE,134,4.0,6.0,63,0.00,,CLR,0.00,VWS V14.01,2013-04-26 04:00:00,
2013-04-25 23:01:00,42.7,31.4,30.13,SSE,148,1.0,2.0,64,0.00,,CLR,0.00,VWS V14.01,2013-04-26 04:01:00,
2013-04-25 23:02:00,42.7,31.4,30.12,South,178,2.0,5.0,64,0.00,,CLR,0.00,VWS V14.01,2013-04-26 04:02:00,
2013-04-25 23:05:00,42.7,30.6,30.11,SSE,154,1.0,1.0,62,0.00,,CLR,0.00,VWS V14.01,2013-04-26 04:05:00,
2013-04-25 23:07:00,42.7,30.6,30.12,ESE,113,4.0,4.0,62,0.00,,CLR,0.00,VWS V14.01,2013-04-26 04:07:00,
2013-04-25 23:10:00,42.7,31.4,30.12,SE,140,4.0,5.0,64,0.00,,CLR,0.00,VWS V14.01,2013-04-26 04:10:00,
2013-04-25 23:12:00,42.7,31.4,30.11,SE,141,3.0,4.0,64,0.00,,CLR,0.00,VWS V14.01,2013-04-26 04:12:00,
2013-04-25 23:15:00,42.5,30.8,30.11,South,184,2.0,2.0,63,0.00,,CLR,0.00,VWS V14.01,2013-04-26 04:15:00,
2013-04-25 23:17:00,42.5,30.8,30.11,SE,144,4.0,4.0,63,0.00,,CLR,0.00,VWS V14.01,2013-04-26 04:17:00,
2013-04-25 23:20:00,42.7,30.2,30.11,SSE,154,1.0,5.0,61,0.00,,CLR,0.00,VWS V14.01,2013-04-26 04:20:00,
2013-04-25 23:22:00,42.7,30.2,30.11,SSE,157,2.0,2.0,61,0.00,,CLR,0.00,VWS V14.01,2013-04-26 04:22:00,
2013-04-25 23:25:00,42.9,30.4,30.11,SE,126,4.0,4.0,61,0.00,,CLR,0.00,VWS V14.01,2013-04-26 04:25:00,
2013-04-25 23:27:00,42.8,30.3,30.11,ESE,110,7.0,7.0,61,0.00,,CLR,0.00,VWS V14.01,2013-04-26 04:27:00,
2013-04-25 23:30:00,42.8,30.3,30.11,SSE,160,0.0,0.0,61,0.00,,CLR,0.00,VWS V14.01,2013-04-26 04:30:00,
2013-04-25 23:32:00,42.8,30.3,30.11,SSE,161,1.0,2.0,61,0.00,,CLR,0.00,VWS V14.01,2013-04-26 04:32:00,
2013-04-25 23:35:00,42.7,30.6,30.11,SE,125,2.0,2.0,62,0.00,,CLR,0.00,VWS V14.01,2013-04-26 04:35:00,
2013-04-25 23:38:00,42.7,30.6,30.11,SE,132,2.0,2.0,62,0.00,,BKN110,0.00,VWS V14.01,2013-04-26 04:38:00,
2013-04-25 23:40:00,42.7,30.6,30.11,SSE,166,1.0,2.0,62,0.00,,CLR,0.00,VWS V14.01,2013-04-26 04:40:00,
2013-04-25 23:43:00,42.6,30.5,30.11,ENE,58,4.0,4.0,62,0.00,,BKN110,0.00,VWS V14.01,2013-04-26 04:43:00,
2013-04-25 23:45:00,42.7,30.6,30.11,East,96,5.0,5.0,62,0.00,,CLR,0.00,VWS V14.01,2013-04-26 04:45:00,
2013-04-25 23:48:00,42.7,30.6,30.11,South,191,1.0,1.0,62,0.00,,BKN110,0.00,VWS V14.01,2013-04-26 04:48:00,
2013-04-25 23:50:00,42.7,30.2,30.10,ESE,122,1.0,2.0,61,0.00,,CLR,0.00,VWS V14.01,2013-04-26 04:50:00,
2013-04-25 23:53:00,42.7,30.6,30.10,SE,128,6.0,7.0,62,0.00,,BKN110,0.00,VWS V14.01,2013-04-26 04:53:00,
2013-04-25 23:55:00,42.7,30.2,30.10,SE,145,1.0,3.0,61,0.00,,CLR,0.00,VWS V14.01,2013-04-26 04:55:00,
2013-04-25 23:58:00,42.7,30.2,30.10,SSE,160,1.0,2.0,61,0.00,,BKN110,0.00,VWS V14.01,2013-04-26 04:58:00,